This demonstration page uses our WeatherBlox Daily Observations layout. Learn more.

Left ArrowRight Arrow

39.92423, -83.80882

Hourly Observations for June 12, 2015

Temp ( °F °C ) Dew Point ( °F °C ) Humidity (%) Winds ( mph kmh ) Pressure ( in mb ) Visibility ( mi km ) Precip ( " mm )
12:56 am 00:56 Clear 77 25 67 19.4 71 71 S 7 11 29.89 1012 9 14.48406 0 0
1:56 am 01:56 Clear 76 24.4 67 19.4 74 74 S 6 9 29.89 1012 9 14.48406 0 0
2:56 am 02:56 Clear 76 24.4 67 19.4 74 74 SSW 7 11 29.88 1012 9 14.48406 0 0
3:56 am 03:56 Clear 74 23.3 67 19.4 79 79 SSW 7 11 29.89 1012 9 14.48406 0 0
4:56 am 04:56 Clear 73 22.7 67 19.4 82 82 SSW 7 11 29.89 1012 9 14.48406 0 0
5:56 am 05:56 Clear 73 22.7 68 20 85 85 S 6 9 29.89 1012 9 14.48406 0 0
6:56 am 06:56 Sunny 73 22.7 68 20 85 85 SSW 7 11 29.91 1013 7 11.26538 0 0
7:56 am 07:56 Sunny 75 23.8 69 20.5 82 82 SSW 9 15 29.91 1013 7 11.26538 0 0
8:56 am 08:56 Sunny 78 25.5 70 21.1 77 77 SW 13 20 29.92 1013 8 12.87472 0 0
9:56 am 09:56 Sunny 82 27.7 71 21.6 69 69 SSW 13 20 29.91 1013 7 11.26538 0 0
10:56 am 10:56 Sunny 86 30 71 21.6 61 61 SW 17 28 29.9 1013 8 12.87472 0 0
11:56 am 11:56 Partly Cloudy 86 30 71 21.6 61 61 WSW 16 26 29.91 1013 8 12.87472 0 0
12:56 pm 12:56 Sunny 89 31.6 70 21.1 54 54 SW 16 26 29.9 1013 8 12.87472 0 0
1:56 pm 13:56 Mostly Sunny 91 32.7 70 21.1 50 50 WSW 17 28 29.89 1012 9 14.48406 0 0
2:18 pm 14:18 Partly Cloudy with Heavy Rain 84 29 73 23 70 70 W 24 39 29.88 1012 2 3.21868 0.02 0.508
2:20 pm 14:20 Mostly Cloudy with Heavy Rain 82 28 73 23 74 74 WNW 17 28 29.88 1012 1.25 2.011675 0.03 0.762
2:25 pm 14:25 Mostly Cloudy with Haze 77 25 72 22 83 83 W 14 22 29.88 1012 1 1.60934 0.03 0.762
2:28 pm 14:28 Mostly Cloudy with Haze 77 25 70 21 79 79 W 16 26 29.88 1012 1.75 2.816345 0.03 0.762
2:30 pm 14:30 Mostly Cloudy with Haze 77 25 70 21 79 79 W 14 22 29.88 1012 3 4.82802 0.03 0.762
2:41 pm 14:41 Mostly Cloudy with Light Rain 75 24 72 22 89 89 WNW 9 15 29.91 1013 2.5 4.02335 0.05 1.27
2:49 pm 14:49 Mostly Cloudy with Light Rain 77 25 72 22 83 83 WNW 8 13 29.88 1012 6 9.65604 0.05 1.27
2:56 pm 14:56 Hazy 78 25.5 71 21.6 79 79 WNW 5 7 29.91 1013 6 9.65604 0.05 1.27
3:56 pm 15:56 Mostly Cloudy with Light Rain 76 24.4 70 21.1 82 82 NNW 15 24 29.91 1013 3 4.82802 0 0.0254
4:00 pm 16:00 Mostly Cloudy with Light Thunderstorms 73 23 70 21 89 89 NNW 10 17 29.91 1013 2.5 4.02335 0 0.0254
4:15 pm 16:15 Mostly Cloudy with Light Thunderstorms 73 23 70 21 89 89 S 6 9 29.94 1014 5 8.0467 0.01 0.254
4:56 pm 16:56 Partly Cloudy with Nearby Thunderstorms 71 21.6 70 21.1 97 97 Calm 29.94 1014 6 9.65604 0.01 0.254
5:09 pm 17:09 Partly Cloudy with Light Rain 72 22 72 22 100 100 Calm 29.91 1013 4 6.43736 0 0.0254
5:17 pm 17:17 Mostly Cloudy with Light Thunderstorms 72 22 72 22 100 100 Calm 29.91 1013 3 4.82802 0.01 0.254
5:32 pm 17:32 Partly Cloudy with Mist and Fog 72 22 72 22 100 100 S 6 9 29.91 1013 5 8.0467 0.01 0.254
5:56 pm 17:56 Sunny with Mist and Fog 72 22.2 71 21.6 96 96 S 5 7 29.91 1013 6 9.65604 0.01 0.254
6:56 pm 18:56 Sunny 76 24.4 71 21.6 84 84 SSW 6 9 29.91 1013 8 12.87472 0 0
7:56 pm 19:56 Sunny 75 23.8 72 22.2 91 91 SW 7 11 29.93 1014 7 11.26538 0 0
8:56 pm 20:56 Partly Cloudy with Mist and Fog 74 23.3 72 22.2 94 94 SW 5 7 29.96 1015 6 9.65604 0 0
9:56 pm 21:56 Mostly Cloudy with Light Rain 73 22.7 70 21.1 91 91 W 8 13 29.95 1014 4 6.43736 0.02 0.508
10:56 pm 22:56 Clear 71 21.6 70 21.1 97 97 SSW 9 15 29.95 1014 8 12.87472 0 0.0254
11:56 pm 23:56 Clear 71 21.6 69 20.5 93 93 S 7 11 29.93 1013 9 14.48406 0.01 0.254

Powered by AerisWeather